| time (UTC) | temp F | wind direction | speed MPH | gust MPH | rain 1hr in | rain 24hr in | rain mn in | humidity % | barometer mb |
| 20260904110041 | 54 | 276 | 0.0 | 1.0 | 0.00 | 0.00 | 0.00 | 39 | 1003.7 |
| 20260904104539 | 55 | 260 | 0.0 | 1.0 | 0.00 | 0.00 | 0.00 | 38 | 1003.8 |
| 20260904103042 | 55 | 253 | 1.0 | 6.0 | 0.00 | 0.00 | 0.00 | 38 | 1003.7 |
| 20260904100034 | 55 | 213 | 1.0 | 3.0 | 0.00 | 0.00 | 0.00 | 38 | 1003.7 |
| 20260904094533 | 56 | 263 | 3.0 | 4.0 | 0.00 | 0.00 | 0.00 | 37 | 1003.7 |
| 20260904093033 | 57 | 249 | 2.0 | 6.0 | 0.00 | 0.00 | 0.00 | 36 | 1003.7 |
| 20260904090028 | 56 | 233 | 1.0 | 3.0 | 0.00 | 0.00 | 0.00 | 36 | 1003.5 |
| 20260904084527 | 57 | 130 | 0.0 | 1.0 | 0.00 | 0.00 | 0.00 | 35 | 1003.4 |
| 20260904083027 | 57 | 130 | 0.0 | 1.0 | 0.00 | 0.00 | 0.00 | 35 | 1003.3 |
| 20260904080029 | 60 | 125 | 0.0 | 1.0 | 0.00 | 0.00 | 0.00 | 33 | 1003.3 |
| 20260904074524 | 60 | 124 | 0.0 | 1.0 | 0.00 | 0.00 | 0.00 | 34 | 1003.4 |
| 20260904073022 | 60 | 109 | 0.0 | 0.0 | 0.00 | 0.00 | 0.00 | 34 | 1003.4 |
| 20260904070019 | 61 | 263 | 2.0 | 3.0 | 0.00 | 0.00 | 0.00 | 31 | 1003.4 |
| 20260904064517 | 64 | 137 | 0.0 | 4.0 | 0.00 | 0.00 | 0.00 | 29 | 1003.4 |
| 20260904063017 | 63 | 201 | 1.0 | 8.0 | 0.00 | 0.00 | 0.00 | 30 | 1003.3 |
| 20260904060013 | 64 | 246 | 1.0 | 2.0 | 0.00 | 0.00 | 0.00 | 28 | 1003.2 |
| 20260904054527 | 65 | 175 | 0.0 | 0.0 | 0.00 | 0.00 | 0.00 | 27 | 1003.3 |
| 20260904053013 | 65 | 170 | 2.0 | 3.0 | 0.00 | 0.00 | 0.00 | 27 | 1003.3 |
| 20260904050010 | 68 | 159 | 3.0 | 3.0 | 0.00 | 0.00 | 0.00 | 25 | 1003.0 |
| 20260904044512 | 68 | 140 | 1.0 | 2.0 | 0.00 | 0.00 | 0.00 | 25 | 1002.9 |
| 20260904043009 | 70 | 126 | 0.0 | 1.0 | 0.00 | 0.00 | 0.00 | 24 | 1002.9 |
| 20260904040011 | 70 | 140 | 3.0 | 5.0 | 0.00 | 0.00 | 0.00 | 23 | 1002.9 |
| 20260904034509 | 72 | 201 | 1.0 | 3.0 | 0.00 | 0.00 | 0.00 | 24 | 1002.8 |
| 20260904033013 | 73 | 125 | 2.0 | 4.0 | 0.00 | 0.00 | 0.00 | 23 | 1002.8 |
| 20260904030006 | 75 | 127 | 4.0 | 5.0 | 0.00 | 0.00 | 0.00 | 21 | 1002.5 |
| 20260904024506 | 77 | 128 | 5.0 | 8.0 | 0.00 | 0.00 | 0.00 | 20 | 1002.4 |
| 20260904023005 | 76 | 156 | 3.0 | 6.0 | 0.00 | 0.00 | 0.00 | 22 | 1002.2 |
| 20260904020005 | 78 | 139 | 4.0 | 6.0 | 0.00 | 0.00 | 0.00 | 20 | 1001.7 |
| 20260904014505 | 79 | 155 | 3.0 | 6.0 | 0.00 | 0.00 | 0.00 | 20 | 1001.6 |
| 20260904013003 | 82 | 152 | 4.0 | 9.0 | 0.00 | 0.00 | 0.00 | 20 | 1001.4 |
| 20260904010008 | 85 | 142 | 6.0 | 10.0 | 0.00 | 0.00 | 0.00 | 17 | 1001.4 |
| 20260904004502 | 86 | 144 | 4.0 | 9.0 | 0.00 | 0.00 | 0.00 | 18 | 1001.5 |
| 20260904003002 | 86 | 129 | 6.0 | 14.0 | 0.00 | 0.00 | 0.00 | 17 | 1001.5 |
| 20260904000104 | 87 | 97 | 1.0 | 12.0 | 0.00 | 0.00 | 0.00 | 17 | 1001.5 |
| 20260903234559 | 87 | 222 | 6.0 | 13.0 | 0.00 | 0.00 | 0.00 | 16 | 1001.6 |
| 20260903233057 | 87 | 208 | 6.0 | 10.0 | 0.00 | 0.00 | 0.00 | 16 | 1001.8 |
| 20260903230054 | 86 | 142 | 6.0 | 12.0 | 0.00 | 0.00 | 0.00 | 17 | 1002.0 |
| 20260903224600 | 86 | 179 | 3.0 | 13.0 | 0.00 | 0.00 | 0.00 | 17 | 1002.1 |
| 20260903223053 | 86 | 113 | 2.0 | 16.0 | 0.00 | 0.00 | 0.00 | 17 | 1002.2 |
| 20260903220051 | 86 | 117 | 11.0 | 16.0 | 0.00 | 0.00 | 0.00 | 16 | 1002.3 |
| 20260903214602 | 86 | 208 | 9.0 | 18.0 | 0.00 | 0.00 | 0.00 | 16 | 1002.4 |
| 20260903213051 | 86 | 140 | 6.0 | 14.0 | 0.00 | 0.00 | 0.00 | 17 | 1002.4 |
| 20260903210058 | 85 | 122 | 4.0 | 12.0 | 0.00 | 0.00 | 0.00 | 17 | 1002.6 |
| 20260903204559 | 86 | 223 | 7.0 | 22.0 | 0.00 | 0.00 | 0.00 | 16 | 1002.7 |
| 20260903203043 | 85 | 142 | 7.0 | 15.0 | 0.00 | 0.00 | 0.00 | 16 | 1002.8 |
| 20260903200055 | 85 | 311 | 2.0 | 14.0 | 0.00 | 0.00 | 0.00 | 16 | 1002.8 |
| 20260903194543 | 84 | 255 | 6.0 | 18.0 | 0.00 | 0.00 | 0.00 | 16 | 1003.0 |
| 20260903193040 | 84 | 263 | 9.0 | 14.0 | 0.00 | 0.00 | 0.00 | 16 | 1003.0 |
| 20260903190042 | 84 | 246 | 6.0 | 32.0 | 0.00 | 0.00 | 0.00 | 16 | 1003.4 |
| 20260903184542 | 84 | 212 | 9.0 | 21.0 | 0.00 | 0.00 | 0.00 | 16 | 1003.3 |
| 20260903183043 | 83 | 237 | 10.0 | 22.0 | 0.00 | 0.00 | 0.00 | 16 | 1003.5 |
| 20260903180039 | 82 | 136 | 9.0 | 24.0 | 0.00 | 0.00 | 0.00 | 16 | 1003.8 |
| 20260903174530 | 82 | 194 | 8.0 | 15.0 | 0.00 | 0.00 | 0.00 | 20 | 1003.8 |
| 20260903173029 | 82 | 151 | 9.0 | 14.0 | 0.00 | 0.00 | 0.00 | 22 | 1004.0 |
| 20260903170035 | 78 | 127 | 1.0 | 7.0 | 0.00 | 0.00 | 0.00 | 27 | 1004.3 |
| 20260903164521 | 77 | 28 | 0.0 | 6.0 | 0.00 | 0.00 | 0.00 | 31 | 1004.3 |
| 20260903163025 | 76 | 110 | 1.0 | 5.0 | 0.00 | 0.00 | 0.00 | 30 | 1004.4 |
| 20260903160013 | 73 | 22 | 3.0 | 7.0 | 0.00 | 0.00 | 0.00 | 33 | 1004.5 |
| 20260903154510 | 72 | 8 | 1.0 | 4.0 | 0.00 | 0.00 | 0.00 | 34 | 1004.6 |
| 20260903153006 | 71 | 140 | 1.0 | 3.0 | 0.00 | 0.00 | 0.00 | 35 | 1004.6 |
| 20260903150005 | 69 | 327 | 0.0 | 4.0 | 0.00 | 0.00 | 0.00 | 33 | 1004.8 |
| 20260903144507 | 67 | 240 | 2.0 | 4.0 | 0.00 | 0.00 | 0.00 | 34 | 1004.7 |
| 20260903143003 | 65 | 226 | 4.0 | 6.0 | 0.00 | 0.00 | 0.00 | 36 | 1004.7 |
| 20260903140001 | 60 | 241 | 0.0 | 1.0 | 0.00 | 0.00 | 0.00 | 44 | 1004.6 |
| 20260903134600 | 59 | 26 | 0.0 | 1.0 | 0.00 | 0.00 | 0.00 | 47 | 1004.5 |
| 20260903133058 | 57 | 219 | 0.0 | 1.0 | 0.00 | 0.00 | 0.00 | 46 | 1004.2 |
| 20260903131654 | 59 | 219 | 0.0 | 1.0 | 0.00 | 0.00 | 0.00 | 44 | 1003.9 |
| 20260903130053 | 60 | 218 | 0.0 | 1.0 | 0.00 | 0.00 | 0.00 | 42 | 1003.7 |
| 20260903124600 | 61 | 161 | 1.0 | 1.0 | 0.00 | 0.00 | 0.00 | 42 | 1003.5 |
| 20260903123049 | 60 | 170 | 0.0 | 2.0 | 0.00 | 0.00 | 0.00 | 42 | 1003.5 |
| 20260903121648 | 60 | 259 | 0.0 | 2.0 | 0.00 | 0.00 | 0.00 | 43 | 1003.5 |
| 20260903120058 | 60 | 214 | 1.0 | 3.0 | 0.00 | 0.00 | 0.00 | 44 | 1003.4 |
| 20260903114547 | 61 | 244 | 0.0 | 2.0 | 0.00 | 0.00 | 0.00 | 43 | 1003.2 |
| 20260903113050 | 60 | 154 | 1.0 | 4.0 | 0.00 | 0.00 | 0.00 | 45 | 1003.1 |